,,Stat5,,Stat1,,Stat2,,Stat3,,Stat4,,Wind1,,Wind1,
time,status,PA1M_AVG,status,PR1M_SUM,status,RH1M_AVG,status,SR1M_AVG,status,TA1M_AVG,status,W1dAve1m,status,W1sAve1m,
2001-02-10, 00:00:00,VALID,918.213,VALID,0,VALID,99.4611,VALID,0,VALID,18.4212,VALID,112,VALID,0.371299,
2001-02-10, 00:01:00,VALID,918.212,VALID,0,VALID,99.4687,VALID,0,VALID,18.4042,VALID,112,VALID,0,
2001-02-10, 00:02:00,VALID,918.209,VALID,0,VALID,99.4649,VALID,-0.0339617,VALID,18.4081,VALID,3,VALID,0.222155,
2001-02-10, 00:03:00,VALID,918.231,VALID,0,VALID,99.4675,VALID,-0.0509425,VALID,18.4277,VALID,296,VALID,0.0460526,
2001-02-10, 00:04:00,VALID,918.219,VALID,0,VALID,99.4764,VALID,-0.0339617,VALID,18.4275,VALID,296,VALID,0,
2001-02-10, 00:05:00,VALID,918.203,VALID,0,VALID,99.4802,VALID,0,VALID,18.4369,VALID,14,VALID,0.231702,
2001-02-10, 00:06:00,VALID,918.203,VALID,0,VALID,99.5005,VALID,-0.0169808,VALID,18.463,VALID,88,VALID,0.068201,
2001-02-10, 00:07:00,VALID,918.208,VALID,0,VALID,99.4929,VALID,-0.0339617,VALID,18.4699,VALID,88,VALID,0,
2001-02-10, 00:08:00,VALID,918.207,VALID,0,VALID,99.4789,VALID,-0.0509425,VALID,18.4635,VALID,356,VALID,0.0667969,
2001-02-10, 00:09:00,VALID,918.195,VALID,0,VALID,99.4865,VALID,-0.0339617,VALID,18.4565,VALID,305,VALID,0.27241,
2001-02-10, 00:10:00,VALID,918.198,VALID,0,VALID,99.4853,VALID,-0.0169808,VALID,18.4662,VALID,318,VALID,0.180689,
2001-02-10, 00:11:00,VALID,918.162,VALID,0,VALID,99.4891,VALID,-0.0169808,VALID,18.4598,VALID,318,VALID,0.00801809,
2001-02-10, 00:12:00,VALID,918.169,VALID,0,VALID,99.5043,VALID,-0.0339617,VALID,18.4729,VALID,12,VALID,0.176604,
2001-02-10, 00:13:00,VALID,918.168,VALID,0,VALID,99.4916,VALID,0.0169808,VALID,18.4891,VALID,301,VALID,0.0426339,
2001-02-10, 00:14:00,VALID,918.152,VALID,0,VALID,99.484,VALID,0,VALID,18.4824,VALID,170,VALID,0.210115,
2001-02-10, 00:15:00,VALID,918.15,VALID,0,VALID,99.4891,VALID,0,VALID,18.4791,VALID,133,VALID,0.0785473,
2001-02-10, 00:16:00,VALID,918.153,VALID,0,VALID,99.498,VALID,0.0169808,VALID,18.4789,VALID,132,VALID,0,
2001-02-10, 00:17:00,VALID,918.133,VALID,0.2,VALID,99.498,VALID,0,VALID,18.4826,VALID,118,VALID,0,
2001-02-10, 00:18:00,VALID,918.126,VALID,0,VALID,99.4954,VALID,0,VALID,18.4824,VALID,93,VALID,0.046875,
2001-02-10, 00:19:00,VALID,918.118,VALID,0,VALID,99.498,VALID,0,VALID,18.4496,VALID,312,VALID,0.700781,
2001-02-10, 00:20:00,VALID,918.092,VALID,0,VALID,99.5005,VALID,0,VALID,18.4658,VALID,273,VALID,0.140855,
2001-02-10, 00:21:00,VALID,918.083,VALID,0,VALID,99.5056,VALID,0,VALID,18.4854,VALID,262,VALID,0.00527872,
2001-02-10, 00:22:00,VALID,918.059,VALID,0,VALID,99.5145,VALID,-0.0169808,VALID,18.4821,VALID,205,VALID,0.0151654,
2001-02-10, 00:23:00,VALID,918.036,VALID,0,VALID,99.5145,VALID,-0.0339617,VALID,18.4861,VALID,154,VALID,0.00105574,
2001-02-10, 00:24:00,VALID,918.012,VALID,0,VALID,99.5209,VALID,-0.0169808,VALID,18.4888,VALID,211,VALID,0,
2001-02-10, 00:25:00,VALID,918.004,VALID,0,VALID,99.5107,VALID,0,VALID,18.4953,VALID,122,VALID,0.460737,
2001-02-10, 00:26:00,VALID,917.976,VALID,0,VALID,99.517,VALID,-0.0509425,VALID,18.5052,VALID,104,VALID,0.721652,
2001-02-10, 00:27:00,VALID,917.956,VALID,0,VALID,99.5259,VALID,-0.0339617,VALID,18.5112,VALID,100,VALID,0.670397,
2001-02-10, 00:28:00,VALID,917.947,VALID,0,VALID,99.5221,VALID,-0.0169808,VALID,18.5278,VALID,84,VALID,0.441406,
2001-02-10, 00:29:00,VALID,917.933,VALID,0,VALID,99.517,VALID,-0.0169808,VALID,18.5214,VALID,83,VALID,0.00253378,
2001-02-10, 00:30:00,VALID,917.918,VALID,0,VALID,99.5196,VALID,-0.0169808,VALID,18.4985,VALID,85,VALID,0,
2001-02-10, 00:31:00,VALID,917.905,VALID,0,VALID,99.5183,VALID,-0.0509425,VALID,18.4985,VALID,121,VALID,0.148026,
2001-02-10, 00:32:00,VALID,917.898,VALID,0,VALID,99.5132,VALID,-0.0509425,VALID,18.4995,VALID,136,VALID,0.300223,
2001-02-10, 00:33:00,VALID,917.883,VALID,0,VALID,99.5196,VALID,-0.0509425,VALID,18.4953,VALID,107,VALID,0.00422297,
2001-02-10, 00:34:00,VALID,917.859,VALID,0,VALID,99.5094,VALID,-0.0169808,VALID,18.499,VALID,107,VALID,0,
2001-02-10, 00:35:00,VALID,917.831,VALID,0,VALID,99.5247,VALID,-0.0339617,VALID,18.4824,VALID,107,VALID,0,
2001-02-10, 00:36:00,VALID,917.812,VALID,0,VALID,99.5196,VALID,-0.0339617,VALID,18.493,VALID,107,VALID,0,
2001-02-10, 00:37:00,VALID,917.803,VALID,0,VALID,99.517,VALID,-0.0169808,VALID,18.5027,VALID,107,VALID,0,
2001-02-10, 00:38:00,VALID,917.779,VALID,0,VALID,99.5031,VALID,-0.0509425,VALID,18.4697,VALID,111,VALID,0,
2001-02-10, 00:39:00,VALID,917.749,VALID,0,VALID,99.4942,VALID,-0.0339617,VALID,18.4598,VALID,113,VALID,0,
2001-02-10, 00:40:00,VALID,917.727,VALID,0,VALID,99.5145,VALID,-0.0339617,VALID,18.4498,VALID,113,VALID,0,
2001-02-10, 00:41:00,VALID,917.705,VALID,0,VALID,99.5247,VALID,-0.0339617,VALID,18.46,VALID,113,VALID,0,
2001-02-10, 00:42:00,VALID,917.682,VALID,0,VALID,99.5259,VALID,0,VALID,18.4628,VALID,113,VALID,0,
2001-02-10, 00:43:00,VALID,917.669,VALID,0,VALID,99.5272,VALID,-0.0169808,VALID,18.4595,VALID,113,VALID,0,
2001-02-10, 00:44:00,VALID,917.648,VALID,0,VALID,99.5247,VALID,-0.0169808,VALID,18.4369,VALID,113,VALID,0,
2001-02-10, 00:45:00,VALID,917.638,VALID,0,VALID,99.5018,VALID,-0.0169808,VALID,18.4339,VALID,113,VALID,0,
2001-02-10, 00:46:00,VALID,917.619,VALID,0,VALID,99.4967,VALID,-0.0169808,VALID,18.4081,VALID,113,VALID,0,
2001-02-10, 00:47:00,VALID,917.602,VALID,0,VALID,99.5132,VALID,-0.0339617,VALID,18.4148,VALID,112,VALID,0.157728,
2001-02-10, 00:48:00,VALID,917.603,VALID,0,VALID,99.5158,VALID,-0.0339617,VALID,18.4215,VALID,111,VALID,0.0915527,
2001-02-10, 00:49:00,VALID,917.589,VALID,0,VALID,99.517,VALID,-0.0339617,VALID,18.4019,VALID,111,VALID,0,
2001-02-10, 00:50:00,VALID,917.564,VALID,0,VALID,99.5145,VALID,-0.0509425,VALID,18.3989,VALID,111,VALID,0,
2001-02-10, 00:51:00,VALID,917.552,VALID,0,VALID,99.5196,VALID,-0.0169808,VALID,18.3919,VALID,111,VALID,0,
2001-02-10, 00:52:00,VALID,917.53,VALID,0,VALID,99.5209,VALID,-0.0339617,VALID,18.3887,VALID,111,VALID,0,
2001-02-10, 00:53:00,VALID,917.525,VALID,0,VALID,99.5196,VALID,-0.0339617,VALID,18.3956,VALID,111,VALID,0,
2001-02-10, 00:54:00,VALID,917.507,VALID,0,VALID,99.5081,VALID,-0.0169808,VALID,18.379,VALID,111,VALID,0,
2001-02-10, 00:55:00,VALID,917.5,VALID,0,VALID,99.5272,VALID,-0.0169808,VALID,18.3929,VALID,111,VALID,0.0141859,
2001-02-10, 00:56:00,VALID,917.473,VALID,0,VALID,99.5272,VALID,-0.0339617,VALID,18.3661,VALID,111,VALID,0.240179,
2001-02-10, 00:57:00,VALID,917.457,VALID,0,VALID,99.5183,VALID,-0.0339617,VALID,18.3534,VALID,111,VALID,0.455448,
2001-02-10, 00:58:00,VALID,917.435,VALID,0,VALID,99.5183,VALID,-0.0679233,VALID,18.3599,VALID,111,VALID,0.0700827,
2001-02-10, 00:59:00,VALID,917.435,VALID,0,VALID,99.5209,VALID,-0.0339617,VALID,18.3537,VALID,111,VALID,0,
2001-02-10, 01:00:00,VALID,917.428,VALID,0,VALID,99.5272,VALID,-0.0509425,VALID,18.3504,VALID,111,VALID,0,
2001-02-10, 01:01:00,VALID,917.411,VALID,0,VALID,99.5234,VALID,-0.0509425,VALID,18.334,VALID,111,VALID,0,
2001-02-10, 01:02:00,VALID,917.393,VALID,0,VALID,99.5259,VALID,0,VALID,18.3343,VALID,111,VALID,0,
2001-02-10, 01:03:00,VALID,917.388,VALID,0,VALID,99.5196,VALID,-0.0169808,VALID,18.3114,VALID,161,VALID,0.0491976,
2001-02-10, 01:04:00,VALID,917.367,VALID,0,VALID,99.5361,VALID,0,VALID,18.3112,VALID,261,VALID,0.126608,
2001-02-10, 01:05:00,VALID,917.339,VALID,0,VALID,99.5348,VALID,-0.0339617,VALID,18.3147,VALID,318,VALID,0.206292,
2001-02-10, 01:06:00,VALID,917.335,VALID,0,VALID,99.5259,VALID,0,VALID,18.3174,VALID,319,VALID,0.187294,
2001-02-10, 01:07:00,VALID,917.325,VALID,0,VALID,99.5272,VALID,0,VALID,18.3077,VALID,323,VALID,0.00945724,
2001-02-10, 01:08:00,VALID,917.315,VALID,0,VALID,99.5361,VALID,-0.0339617,VALID,18.3211,VALID,325,VALID,0,
2001-02-10, 01:09:00,VALID,917.296,VALID,0,VALID,99.5298,VALID,-0.0339617,VALID,18.2948,VALID,325,VALID,0.00105574,
2001-02-10, 01:10:00,VALID,917.281,VALID,0,VALID,99.5183,VALID,0,VALID,18.3017,VALID,330,VALID,0.0298713,
2001-02-10, 01:11:00,VALID,917.265,VALID,0,VALID,99.5196,VALID,-0.0169808,VALID,18.2854,VALID,348,VALID,0.00717905,
2001-02-10, 01:12:00,VALID,917.265,VALID,0,VALID,99.5196,VALID,-0.0169808,VALID,18.2724,VALID,347,VALID,0.0788574,
2001-02-10, 01:13:00,VALID,917.244,VALID,0,VALID,99.5285,VALID,0,VALID,18.2757,VALID,19,VALID,0.314704,
2001-02-10, 01:14:00,VALID,917.23,VALID,0,VALID,99.5298,VALID,-0.0169808,VALID,18.2951,VALID,100,VALID,0.544196,
2001-02-10, 01:15:00,VALID,917.215,VALID,0,VALID,99.5285,VALID,-0.0339617,VALID,18.2854,VALID,104,VALID,0.768159,
2001-02-10, 01:16:00,VALID,917.212,VALID,0,VALID,99.5298,VALID,-0.0509425,VALID,18.2927,VALID,105,VALID,0.772518,
2001-02-10, 01:17:00,VALID,917.201,VALID,0,VALID,99.5348,VALID,-0.0509425,VALID,18.2692,VALID,102,VALID,0.684966,
2001-02-10, 01:18:00,VALID,917.202,VALID,0,VALID,99.5348,VALID,-0.0509425,VALID,18.266,VALID,105,VALID,0.483964,
2001-02-10, 01:19:00,VALID,917.195,VALID,0,VALID,99.5348,VALID,-0.0509425,VALID,18.2704,VALID,95,VALID,0.441817,
2001-02-10, 01:20:00,VALID,917.183,VALID,0,VALID,99.5348,VALID,-0.0509425,VALID,18.2503,VALID,26,VALID,0.791071,
2001-02-10, 01:21:00,VALID,917.158,VALID,0,VALID,99.5361,VALID,-0.0849042,VALID,18.2471,VALID,93,VALID,0.740076,
2001-02-10, 01:22:00,VALID,917.147,VALID,0,VALID,99.5285,VALID,-0.0339617,VALID,18.2404,VALID,89,VALID,0.663373,
2001-02-10, 01:23:00,VALID,917.129,VALID,0,VALID,99.5209,VALID,-0.0339617,VALID,18.2175,VALID,94,VALID,0.35853,
2001-02-10, 01:24:00,VALID,917.109,VALID,0,VALID,99.5145,VALID,-0.0339617,VALID,18.2143,VALID,96,VALID,0.199951,
2001-02-10, 01:25:00,VALID,917.094,VALID,0,VALID,99.5158,VALID,0,VALID,18.2178,VALID,96,VALID,0.122796,
2001-02-10, 01:26:00,VALID,917.079,VALID,0,VALID,99.5221,VALID,0,VALID,18.2111,VALID,96,VALID,0.133036,
2001-02-10, 01:27:00,VALID,917.067,VALID,0,VALID,99.517,VALID,-0.0169808,VALID,18.1979,VALID,100,VALID,0.0405405,
2001-02-10, 01:28:00,VALID,917.05,VALID,0,VALID,99.5221,VALID,-0.0169808,VALID,18.1979,VALID,108,VALID,0.212086,
2001-02-10, 01:29:00,VALID,917.032,VALID,0,VALID,99.5183,VALID,-0.0169808,VALID,18.1984,VALID,82,VALID,0.334671,
2001-02-10, 01:30:00,VALID,917.009,VALID,0,VALID,99.5158,VALID,0,VALID,18.1753,VALID,74,VALID,0.20477,
2001-02-10, 01:31:00,VALID,916.985,VALID,0,VALID,99.5145,VALID,0,VALID,18.1624,VALID,83,VALID,0.269326,
2001-02-10, 01:32:00,VALID,916.965,VALID,0,VALID,99.512,VALID,-0.0339617,VALID,18.1566,VALID,93,VALID,0.507813,
2001-02-10, 01:33:00,VALID,916.932,VALID,0,VALID,99.5056,VALID,0,VALID,18.1299,VALID,96,VALID,0.663429,
2001-02-10, 01:34:00,VALID,916.913,VALID,0,VALID,99.5056,VALID,-0.0169808,VALID,18.1209,VALID,103,VALID,0.422564,
2001-02-10, 01:35:00,VALID,916.904,VALID,0,VALID,99.5005,VALID,-0.0509425,VALID,18.0981,VALID,99,VALID,0.683699,
2001-02-10, 01:36:00,VALID,916.879,VALID,0,VALID,99.5005,VALID,-0.0509425,VALID,18.1087,VALID,97,VALID,0.287354,
2001-02-10, 01:37:00,VALID,916.854,VALID,0,VALID,99.5031,VALID,-0.0169808,VALID,18.0921,VALID,98,VALID,0.675481,
2001-02-10, 01:38:00,VALID,916.835,VALID,0,VALID,99.5056,VALID,-0.0169808,VALID,18.0854,VALID,104,VALID,0.957366,
2001-02-10, 01:39:00,VALID,916.822,VALID,0,VALID,99.5196,VALID,0,VALID,18.0789,VALID,92,VALID,0.480363,
2001-02-10, 01:40:00,VALID,916.817,VALID,0,VALID,99.5132,VALID,-0.0339617,VALID,18.066,VALID,91,VALID,0.00528493,
2001-02-10, 01:41:00,VALID,916.796,VALID,0,VALID,99.517,VALID,-0.0679233,VALID,18.0593,VALID,93,VALID,0,
2001-02-10, 01:42:00,VALID,916.792,VALID,0,VALID,99.5259,VALID,-0.0509425,VALID,18.0628,VALID,93,VALID,0,
2001-02-10, 01:43:00,VALID,916.773,VALID,0,VALID,99.5298,VALID,0,VALID,18.066,VALID,93,VALID,0.0160362,
2001-02-10, 01:44:00,VALID,916.749,VALID,0,VALID,99.5336,VALID,-0.0339617,VALID,18.0791,VALID,86,VALID,0.44375,
2001-02-10, 01:45:00,VALID,916.738,VALID,0,VALID,99.5348,VALID,-0.0509425,VALID,18.0692,VALID,90,VALID,0.5,
2001-02-10, 01:46:00,VALID,916.72,VALID,0,VALID,99.5209,VALID,-0.0169808,VALID,18.0701,VALID,100,VALID,0.701287,
2001-02-10, 01:47:00,VALID,916.707,VALID,0,VALID,99.5158,VALID,-0.0339617,VALID,18.0367,VALID,104,VALID,0.539696,
2001-02-10, 01:48:00,VALID,916.697,VALID,0,VALID,99.5221,VALID,0,VALID,18.0176,VALID,100,VALID,0.113037,
2001-02-10, 01:49:00,VALID,916.694,VALID,0,VALID,99.517,VALID,-0.0169808,VALID,18.0212,VALID,100,VALID,0,
2001-02-10, 01:50:00,VALID,916.686,VALID,0,VALID,99.5221,VALID,-0.0169808,VALID,18.0113,VALID,100,VALID,0,
2001-02-10, 01:51:00,VALID,916.688,VALID,0,VALID,99.5247,VALID,-0.0509425,VALID,18.0016,VALID,100,VALID,0,
2001-02-10, 01:52:00,VALID,916.674,VALID,0,VALID,99.5221,VALID,-0.0169808,VALID,18.0178,VALID,100,VALID,0.0565257,
2001-02-10, 01:53:00,VALID,916.655,VALID,0,VALID,99.5158,VALID,0,VALID,17.9956,VALID,100,VALID,0.0126689,
2001-02-10, 01:54:00,VALID,916.632,VALID,0,VALID,99.517,VALID,-0.0339617,VALID,17.9989,VALID,104,VALID,0.0250822,
2001-02-10, 01:55:00,VALID,916.629,VALID,0,VALID,99.5081,VALID,-0.0849042,VALID,17.9726,VALID,95,VALID,0.122533,
2001-02-10, 01:56:00,VALID,916.62,VALID,0,VALID,99.5081,VALID,-0.0509425,VALID,17.9597,VALID,94,VALID,0,
2001-02-10, 01:57:00,VALID,916.603,VALID,0,VALID,99.5018,VALID,-0.0509425,VALID,17.9566,VALID,94,VALID,0,
2001-02-10, 01:58:00,VALID,916.602,VALID,0,VALID,99.5069,VALID,-0.0679233,VALID,17.9539,VALID,94,VALID,0,
2001-02-10, 01:59:00,VALID,916.602,VALID,0,VALID,99.517,VALID,-0.0509425,VALID,17.944,VALID,148,VALID,0.101774,
2001-02-10, 02:00:00,VALID,916.557,VALID,0,VALID,99.5018,VALID,-0.0509425,VALID,17.9271,VALID,306,VALID,0.204346,
2001-02-10, 02:01:00,VALID,916.549,VALID,0,VALID,99.5043,VALID,-0.0679233,VALID,17.9278,VALID,82,VALID,0.596955,
2001-02-10, 02:02:00,VALID,916.536,VALID,0,VALID,99.5056,VALID,-0.0509425,VALID,17.9276,VALID,114,VALID,0.209598,
2001-02-10, 02:03:00,VALID,916.539,VALID,0,VALID,99.5094,VALID,-0.101885,VALID,17.9213,VALID,114,VALID,0,
2001-02-10, 02:04:00,VALID,916.522,VALID,0,VALID,99.5081,VALID,-0.101885,VALID,17.9087,VALID,114,VALID,0.0693934,
2001-02-10, 02:05:00,VALID,916.524,VALID,0,VALID,99.5069,VALID,-0.0849042,VALID,17.902,VALID,112,VALID,0.0931166,
2001-02-10, 02:06:00,VALID,916.514,VALID,0,VALID,99.4929,VALID,-0.101885,VALID,17.8895,VALID,108,VALID,0.254112,
2001-02-10, 02:07:00,VALID,916.502,VALID,0,VALID,99.4903,VALID,-0.0339617,VALID,17.8791,VALID,105,VALID,0.151521,
2001-02-10, 02:08:00,VALID,916.49,VALID,0,VALID,99.4814,VALID,-0.0169808,VALID,17.8559,VALID,105,VALID,0,
2001-02-10, 02:09:00,VALID,916.475,VALID,0,VALID,99.4776,VALID,0.0169808,VALID,17.8494,VALID,85,VALID,0.597128,
2001-02-10, 02:10:00,VALID,916.451,VALID,0,VALID,99.4662,VALID,0.0339617,VALID,17.8203,VALID,11,VALID,0.0363051,
2001-02-10, 02:11:00,VALID,916.448,VALID,0,VALID,99.4687,VALID,0,VALID,17.8104,VALID,16,VALID,0,
2001-02-10, 02:12:00,VALID,916.437,VALID,0,VALID,99.4687,VALID,0.0339617,VALID,17.8007,VALID,95,VALID,0.495605,
2001-02-10, 02:13:00,VALID,916.44,VALID,0,VALID,99.4662,VALID,0,VALID,17.7943,VALID,83,VALID,0.206931,
2001-02-10, 02:14:00,VALID,916.428,VALID,0,VALID,99.47,VALID,0.0169808,VALID,17.7945,VALID,107,VALID,0.0191964,
2001-02-10, 02:15:00,VALID,916.43,VALID,0,VALID,99.4713,VALID,0.0169808,VALID,17.7853,VALID,107,VALID,0,
2001-02-10, 02:16:00,VALID,916.421,VALID,0,VALID,99.4713,VALID,0,VALID,17.7751,VALID,90,VALID,0.279182,
2001-02-10, 02:17:00,VALID,916.401,VALID,0,VALID,99.4827,VALID,0.0169808,VALID,17.7588,VALID,92,VALID,0.801731,
2001-02-10, 02:18:00,VALID,916.393,VALID,0,VALID,99.4725,VALID,0.0509425,VALID,17.7558,VALID,87,VALID,0.963199,
2001-02-10, 02:19:00,VALID,916.387,VALID,0,VALID,99.4814,VALID,0.0509425,VALID,17.7426,VALID,99,VALID,0.616982,
2001-02-10, 02:20:00,VALID,916.378,VALID,0,VALID,99.4865,VALID,0.0509425,VALID,17.7396,VALID,96,VALID,0.585491,
2001-02-10, 02:21:00,VALID,916.379,VALID,0,VALID,99.5056,VALID,0.0509425,VALID,17.7555,VALID,75,VALID,0.734586,
2001-02-10, 02:22:00,VALID,916.357,VALID,0,VALID,99.512,VALID,0.0339617,VALID,17.7528,VALID,90,VALID,0.454044,
2001-02-10, 02:23:00,VALID,916.354,VALID,0,VALID,99.5132,VALID,-0.101885,VALID,17.744,VALID,125,VALID,1.02618,
2001-02-10, 02:24:00,VALID,916.342,VALID,0,VALID,99.5272,VALID,-0.0339617,VALID,17.7608,VALID,93,VALID,0.830322,
2001-02-10, 02:25:00,VALID,916.339,VALID,0,VALID,99.5183,VALID,-0.0509425,VALID,17.7732,VALID,93,VALID,0.344952,
2001-02-10, 02:26:00,VALID,916.332,VALID,0,VALID,99.517,VALID,-0.0339617,VALID,17.7767,VALID,98,VALID,0.140179,
2001-02-10, 02:27:00,VALID,916.316,VALID,0,VALID,99.5094,VALID,-0.0339617,VALID,17.7599,VALID,96,VALID,0.143159,
2001-02-10, 02:28:00,VALID,916.328,VALID,0,VALID,99.5043,VALID,-0.0339617,VALID,17.7765,VALID,96,VALID,0.0615809,
2001-02-10, 02:29:00,VALID,916.312,VALID,0,VALID,99.5069,VALID,-0.0509425,VALID,17.7732,VALID,90,VALID,0.564189,
2001-02-10, 02:30:00,VALID,916.295,VALID,0,VALID,99.5005,VALID,0,VALID,17.7594,VALID,75,VALID,1.06517,
2001-02-10, 02:31:00,VALID,916.276,VALID,0,VALID,99.4687,VALID,-0.0169808,VALID,17.7403,VALID,114,VALID,0.387952,
2001-02-10, 02:32:00,VALID,916.267,VALID,0,VALID,99.4636,VALID,-0.0339617,VALID,17.7214,VALID,91,VALID,0.41942,
2001-02-10, 02:33:00,VALID,916.244,VALID,0,VALID,99.4598,VALID,-0.0339617,VALID,17.731,VALID,85,VALID,0.1875,
2001-02-10, 02:34:01,VALID,916.213,VALID,0,VALID,99.4496,VALID,-0.0169808,VALID,17.7179,VALID,242,VALID,0.25046,
2001-02-10, 02:35:00,VALID,916.203,VALID,0,VALID,99.4687,VALID,0,VALID,17.7209,VALID,104,VALID,0.451014,
2001-02-10, 02:36:00,VALID,916.211,VALID,0,VALID,99.47,VALID,-0.0339617,VALID,17.744,VALID,168,VALID,0.673828,
2001-02-10, 02:37:00,VALID,916.178,VALID,0,VALID,99.4547,VALID,-0.0169808,VALID,17.7407,VALID,85,VALID,0.78125,
2001-02-10, 02:38:00,VALID,916.158,VALID,0,VALID,99.4331,VALID,0,VALID,17.7278,VALID,107,VALID,0.870536,
2001-02-10, 02:39:00,VALID,916.16,VALID,0,VALID,99.414,VALID,0,VALID,17.7177,VALID,330,VALID,0.149282,
2001-02-10, 02:40:00,VALID,916.194,VALID,0,VALID,99.3899,VALID,-0.0509425,VALID,17.7216,VALID,245,VALID,0.728401,
2001-02-10, 02:41:00,VALID,916.196,VALID,0,VALID,99.3797,VALID,-0.0169808,VALID,17.7214,VALID,150,VALID,0.207137,
2001-02-10, 02:42:00,VALID,916.142,VALID,0,VALID,99.3759,VALID,-0.0339617,VALID,17.7377,VALID,112,VALID,1.14515,
2001-02-10, 02:43:00,VALID,916.12,VALID,0,VALID,99.3505,VALID,-0.0339617,VALID,17.7504,VALID,99,VALID,0.942845,
2001-02-10, 02:44:00,VALID,916.157,VALID,0,VALID,99.3199,VALID,-0.0339617,VALID,17.7442,VALID,121,VALID,0.263839,
2001-02-10, 02:45:00,VALID,916.142,VALID,0,VALID,99.2831,VALID,-0.0509425,VALID,17.7377,VALID,158,VALID,0.339949,
2001-02-10, 02:46:01,VALID,916.119,VALID,0,VALID,99.2691,VALID,-0.0169808,VALID,17.741,VALID,61,VALID,0.349724,
2001-02-10, 02:47:00,VALID,916.119,VALID,0,VALID,99.2704,VALID,0,VALID,17.7405,VALID,97,VALID,0.600507,
2001-02-10, 02:48:00,VALID,916.102,VALID,0,VALID,99.2754,VALID,-0.0509425,VALID,17.7403,VALID,127,VALID,0.801758,
2001-02-10, 02:49:00,VALID,916.085,VALID,0,VALID,99.2627,VALID,-0.0509425,VALID,17.7373,VALID,226,VALID,0.486579,
2001-02-10, 02:50:00,VALID,916.07,VALID,0,VALID,99.264,VALID,-0.0169808,VALID,17.7377,VALID,177,VALID,0.416518,
2001-02-10, 02:51:00,VALID,916.042,VALID,0,VALID,99.2525,VALID,-0.0169808,VALID,17.7375,VALID,209,VALID,0.368666,
2001-02-10, 02:52:00,VALID,916.034,VALID,0,VALID,99.2793,VALID,-0.0169808,VALID,17.7472,VALID,278,VALID,0.284007,
2001-02-10, 02:53:00,VALID,916.029,VALID,0,VALID,99.2945,VALID,0.0849042,VALID,17.7525,VALID,151,VALID,0.356086,
2001-02-10, 02:54:00,VALID,915.998,VALID,0,VALID,99.2665,VALID,0.0509425,VALID,17.723,VALID,187,VALID,0.0744243,
2001-02-10, 02:55:00,VALID,916.01,VALID,0,VALID,99.2373,VALID,0.0509425,VALID,17.7039,VALID,187,VALID,0.133429,
2001-02-10, 02:56:00,VALID,916.005,VALID,0,VALID,99.2386,VALID,0.0509425,VALID,17.7103,VALID,239,VALID,0.167634,
2001-02-10, 02:57:00,VALID,915.994,VALID,0,VALID,99.2411,VALID,0.0849042,VALID,17.7071,VALID,83,VALID,0.438767,
2001-02-10, 02:58:01,VALID,916.005,VALID,0,VALID,99.2373,VALID,0.0509425,VALID,17.7103,VALID,235,VALID,0.170267,
2001-02-10, 02:59:00,VALID,915.982,VALID,0,VALID,99.2119,VALID,0.0679233,VALID,17.7006,VALID,138,VALID,0.555532,
2001-02-10, 03:00:00,VALID,915.995,VALID,0,VALID,99.2157,VALID,0.0679233,VALID,17.7006,VALID,133,VALID,0.193115,
2001-02-10, 03:01:00,VALID,915.968,VALID,0,VALID,99.2093,VALID,0.0509425,VALID,17.7039,VALID,132,VALID,0,
2001-02-10, 03:02:00,VALID,915.991,VALID,0,VALID,99.2131,VALID,0.0509425,VALID,17.7172,VALID,134,VALID,0.43192,
2001-02-10, 03:03:00,VALID,915.993,VALID,0,VALID,99.2182,VALID,0.0679233,VALID,17.7168,VALID,116,VALID,0.30511,
2001-02-10, 03:04:00,VALID,916.015,VALID,0,VALID,99.2322,VALID,0.0679233,VALID,17.7172,VALID,114,VALID,0.0466452,
2001-02-10, 03:05:00,VALID,915.991,VALID,0.2,VALID,99.2424,VALID,0.0509425,VALID,17.7205,VALID,62,VALID,0.00422297,
2001-02-10, 03:06:00,VALID,915.995,VALID,0,VALID,99.2449,VALID,0.0849042,VALID,17.7131,VALID,19,VALID,0.0113076,
2001-02-10, 03:07:00,VALID,915.971,VALID,0,VALID,99.2576,VALID,0.0509425,VALID,17.7304,VALID,95,VALID,0.740132,
2001-02-10, 03:08:00,VALID,915.963,VALID,0,VALID,99.2551,VALID,-0.0339617,VALID,17.728,VALID,102,VALID,0.154911,
2001-02-10, 03:09:00,VALID,915.963,VALID,0,VALID,99.2449,VALID,-0.0339617,VALID,17.7087,VALID,118,VALID,0.588471,
2001-02-10, 03:10:01,VALID,915.928,VALID,0,VALID,99.2475,VALID,-0.0509425,VALID,17.7057,VALID,102,VALID,0.777344,
2001-02-10, 03:11:00,VALID,915.902,VALID,0,VALID,99.2538,VALID,-0.0169808,VALID,17.6992,VALID,60,VALID,0.314189,
2001-02-10, 03:12:00,VALID,915.888,VALID,0,VALID,99.25,VALID,-0.0339617,VALID,17.6957,VALID,301,VALID,0.122314,
2001-02-10, 03:13:00,VALID,915.88,VALID,0,VALID,99.2564,VALID,-0.0679233,VALID,17.6863,VALID,170,VALID,0.211939,
2001-02-10, 03:14:00,VALID,915.862,VALID,0,VALID,99.2602,VALID,-0.0509425,VALID,17.6826,VALID,216,VALID,0.151786,
2001-02-10, 03:15:00,VALID,915.846,VALID,0,VALID,99.2551,VALID,0,VALID,17.6798,VALID,225,VALID,0.324113,
2001-02-10, 03:16:00,VALID,915.843,VALID,0,VALID,99.2449,VALID,-0.0339617,VALID,17.6665,VALID,163,VALID,0.641544,
2001-02-10, 03:17:00,VALID,915.817,VALID,0,VALID,99.2398,VALID,-0.0169808,VALID,17.6635,VALID,97,VALID,0.781039,
2001-02-10, 03:18:00,VALID,915.809,VALID,0,VALID,99.2335,VALID,0,VALID,17.663,VALID,255,VALID,0.349301,
2001-02-10, 03:19:00,VALID,915.829,VALID,0,VALID,99.2131,VALID,-0.0339617,VALID,17.6535,VALID,212,VALID,0.241365,
2001-02-10, 03:20:00,VALID,915.824,VALID,0,VALID,99.1953,VALID,-0.0169808,VALID,17.657,VALID,108,VALID,0.768973,
2001-02-10, 03:21:00,VALID,915.804,VALID,0,VALID,99.1737,VALID,-0.0339617,VALID,17.663,VALID,92,VALID,0.752745,
2001-02-10, 03:22:01,VALID,915.805,VALID,0,VALID,99.133,VALID,0,VALID,17.6535,VALID,92,VALID,0.994256,
2001-02-10, 03:23:00,VALID,915.814,VALID,0,VALID,99.1012,VALID,0.0679233,VALID,17.6326,VALID,108,VALID,0.729096,
2001-02-10, 03:24:00,VALID,915.797,VALID,0,VALID,99.0911,VALID,0.0169808,VALID,17.6397,VALID,100,VALID,0.948486,
2001-02-10, 03:25:00,VALID,915.785,VALID,0,VALID,99.0783,VALID,0.0169808,VALID,17.6266,VALID,300,VALID,0.194511,
2001-02-10, 03:26:00,VALID,915.775,VALID,0,VALID,99.0911,VALID,0.0339617,VALID,17.6169,VALID,151,VALID,0.268973,
2001-02-10, 03:27:00,VALID,915.743,VALID,0,VALID,99.1076,VALID,0.0169808,VALID,17.6266,VALID,93,VALID,0.666807,
2001-02-10, 03:28:00,VALID,915.738,VALID,0,VALID,99.0949,VALID,0.0509425,VALID,17.6335,VALID,99,VALID,0.127757,
2001-02-10, 03:29:00,VALID,915.729,VALID,0,VALID,99.1101,VALID,0.0339617,VALID,17.6305,VALID,226,VALID,0.348395,
2001-02-10, 03:30:00,VALID,915.703,VALID,0,VALID,99.1457,VALID,0.0339617,VALID,17.6365,VALID,296,VALID,0.36801,
2001-02-10, 03:31:00,VALID,915.696,VALID,0,VALID,99.1508,VALID,0.0679233,VALID,17.6363,VALID,305,VALID,0.0269326,
2001-02-10, 03:32:00,VALID,915.681,VALID,0,VALID,99.1724,VALID,0.0339617,VALID,17.64,VALID,233,VALID,0.078125,
2001-02-10, 03:33:00,VALID,915.672,VALID,0,VALID,99.1941,VALID,0.0679233,VALID,17.6466,VALID,179,VALID,0.0386402,